(199347) = 2006 BA162 = 2001 WH103

Discovered at Catalina on 2006-01-26 by CSS.

Orbit

Orbit type: Main Belt

Note: WebGL enabled browser required.

epoch2024-03-31.0
epoch JD2460400.5
perihelion date2023-02-14.74137
perihelion JD2459990.24137
argument of perihelion (°)28.38763
ascending node (°)72.19076
inclination (°)5.45252
eccentricity0.1031159
perihelion distance (AU)2.0548127
Tisserand w.r.t. Jupiter3.6
ΔV w.r.t. Earth (km/sec)9.0
semimajor axis (AU)2.2910571
mean anomaly (°)116.60246
mean daily motion (°/day)0.28421700
aphelion distance (AU)2.527
period (years)3.47
P-vector [x]-0.18153257
P-vector [y]0.88331542
P-vector [z]0.43220343
Q-vector [x]-0.97921477
Q-vector [y]-0.20280108
Q-vector [z]0.00318820
absolute magnitude17.25
phase slope0.15
uncertainty0
referenceMPEC 2024-F50
observations used491
oppositions16
arc length (days)8189
first opposition used2001
last opposition used2024
residual rms (arc-secs)0.77
perturbers coarse indicatorM-v
perturbers precise indicator003Ek
first observation date used2001-10-17.0
last observation date used2024-03-19.0
computer nameMPCLINUX
JD of orbit computation2456847.773786
perihelion JD uncertainty (days)1.1492E-04
argument of perihelion uncertainty (°)6.9595E-05
ascending node uncertainty (°)6.2226E-05
inclination uncertainty (°)5.9972E-06
eccentricity uncertainty 4.9874E-08
perihelion distance uncertainty (AU)1.1276E-07
Minimum Orbit Intersection Distances (in AU)
for orbit epoch: 2460400.5, reference: E2024-F50
Mercury1.7406
Venus1.33589
Earth1.07393
Mars0.43792
Jupiter2.59317
Saturn6.98242
Uranus16.2397
Neptune27.5739

Observations

511 total observations over interval: 2001 10 17.32207 – 2024 03 19.637858
These data are available for download (format description).

Date (UT) J2000 RA J2000 Dec Magn Location Ref
2001 10 17.32207 02 57 26.46 +10 44 43.6 19.7   704 – Lincoln Laboratory ETS, New Mexico MPS 166187
2001 10 17.35395 02 57 24.80 +10 44 40.0 20.4   704 – Lincoln Laboratory ETS, New Mexico MPS 166187
2001 10 17.36984 02 57 24.02 +10 44 36.5 19.9   704 – Lincoln Laboratory ETS, New Mexico MPS 166187
2001 10 17.38577 02 57 23.14 +10 44 35.9 20.0   704 – Lincoln Laboratory ETS, New Mexico MPS 166187
2001 10 25.36010 02 50 06.90 +10 25 47.0 20.4   644 – Palomar Mountain/NEAT MPS 166187
2001 10 25.38129 02 50 05.56 +10 25 44.1 20.7   644 – Palomar Mountain/NEAT MPS 166187
2001 10 25.40232 02 50 04.28 +10 25 41.1 19.9   644 – Palomar Mountain/NEAT MPS 166187
2001 11 18.35146 02 25 08.52 +09 42 13.1 21.2   608 – Haleakala-AMOS MPC 56107
2001 11 18.36208 02 25 07.90 +09 42 12.7 21.0   608 – Haleakala-AMOS MPC 56107
2001 11 18.37230 02 25 07.29 +09 42 11.8 20.8   608 – Haleakala-AMOS MPC 56107
2001 11 20.21548 02 23 25.36 +09 41 06.9 19.1   704 – Lincoln Laboratory ETS, New Mexico MPC 56107
2001 11 20.23017 02 23 24.44 +09 41 06.4 19.6   704 – Lincoln Laboratory ETS, New Mexico MPC 56107
2001 11 20.24505 02 23 23.69 +09 41 06.0 19.4   704 – Lincoln Laboratory ETS, New Mexico MPC 56107
2001 11 20.25975 02 23 22.84 +09 41 05.8 19.8   704 – Lincoln Laboratory ETS, New Mexico MPC 56107
2001 11 20.27444 02 23 21.99 +09 41 05.1 19.6   704 – Lincoln Laboratory ETS, New Mexico MPC 56107
2001 11 21.21969 02 22 31.62 +09 40 44.5 19.5   704 – Lincoln Laboratory ETS, New Mexico MPC 56107
2001 11 21.23435 02 22 30.75 +09 40 44.2 19.8   704 – Lincoln Laboratory ETS, New Mexico MPC 56107
2001 11 21.24900 02 22 29.95 +09 40 43.8 19.9   704 – Lincoln Laboratory ETS, New Mexico MPC 56107
2001 11 21.26367 02 22 29.10 +09 40 43.7 20.1   704 – Lincoln Laboratory ETS, New Mexico MPC 56107
2001 11 21.27834 02 22 28.36 +09 40 43.2 20.1   704 – Lincoln Laboratory ETS, New Mexico MPC 56107
2001 12 17.07276 02 09 52.89 +10 25 16.8 19.6   704 – Lincoln Laboratory ETS, New Mexico MPS 166187
2001 12 17.11842 02 09 52.69 +10 25 27.0 19.8   704 – Lincoln Laboratory ETS, New Mexico MPS 166187
2001 12 17.13362 02 09 52.60 +10 25 30.8 20.1   704 – Lincoln Laboratory ETS, New Mexico MPS 166187
2003 04 07.40008 14 36 25.49 -08 47 26.6 21.0 V 291 – LPL/Spacewatch II MPS 166187
2003 04 07.42325 14 36 24.25 -08 47 22.4 21.4 V 291 – LPL/Spacewatch II MPS 166187
2003 04 07.44661 14 36 23.10 -08 47 17.5 21.0 V 291 – LPL/Spacewatch II MPS 166187
2003 04 24.34870 14 20 10.74 -07 50 40.4 20.4 V 691 – Steward Observatory, Kitt Peak-Spacewatch MPS 166187
2003 04 24.37925 14 20 08.77 -07 50 34.5 20.4 V 691 – Steward Observatory, Kitt Peak-Spacewatch MPS 166187
2003 04 24.40794 14 20 06.92 -07 50 28.8 20.5 V 691 – Steward Observatory, Kitt Peak-Spacewatch MPS 166187
2003 06 06.16354 13 48 24.31 -07 14 37.7 21.8 V 691 – Steward Observatory, Kitt Peak-Spacewatch MPS 166187
2003 06 06.18980 13 48 23.87 -07 14 40.9 22.0 V 691 – Steward Observatory, Kitt Peak-Spacewatch MPS 166187
2003 06 06.21588 13 48 23.44 -07 14 44.9 21.9 V 691 – Steward Observatory, Kitt Peak-Spacewatch MPS 166187
2004 08 21.65454 22 35 44.46 -18 43 40.9 19.8 R E12 – Siding Spring Survey MPS 166187
2004 08 21.66585 22 35 43.75 -18 43 44.6 19.1 R E12 – Siding Spring Survey MPS 166187
2004 08 21.67715 22 35 43.12 -18 43 49.6 19.8 R E12 – Siding Spring Survey MPS 166187
2004 08 21.68844 22 35 42.49 -18 43 53.6 20.4 R E12 – Siding Spring Survey MPS 166187
2006 01 26.35299 10 03 24.08 +21 32 05.1 19.6 V 703 – Catalina Sky Survey MPS 162945
2006 01 26.36050 10 03 23.65 +21 32 08.0 19.7 V 703 – Catalina Sky Survey MPS 162945
2006 01 26.36801 10 03 23.29 +21 32 12.5 19.9 V 703 – Catalina Sky Survey MPS 162945
2006 01 26.37565 10 03 22.96 +21 32 15.2 19.5 V 703 – Catalina Sky Survey MPS 162945
2006 01 27.37702 10 02 34.24 +21 39 53.5 19.1 R 699 – Lowell Observatory-LONEOS MPS 162945
2006 01 27.39896 10 02 33.27 +21 40 04.4   699 – Lowell Observatory-LONEOS MPS 162945
2006 01 27.42091 10 02 31.97 +21 40 13.3   699 – Lowell Observatory-LONEOS MPS 162945
2006 01 27.44285 10 02 30.81 +21 40 24.2   699 – Lowell Observatory-LONEOS MPS 162945
2006 02 04.28335 09 55 22.08 +22 39 15.9 19.2   704 – Lincoln Laboratory ETS, New Mexico MPS 166187
2006 02 04.29619 09 55 21.31 +22 39 22.3 19.8   704 – Lincoln Laboratory ETS, New Mexico MPS 166187
2006 02 04.30931 09 55 20.44 +22 39 29.3 19.7   704 – Lincoln Laboratory ETS, New Mexico MPS 166187
2006 02 04.32263 09 55 19.72 +22 39 33.2 19.6   704 – Lincoln Laboratory ETS, New Mexico MPS 166187
2006 02 04.33724 09 55 18.79 +22 39 39.5 19.3   704 – Lincoln Laboratory ETS, New Mexico MPS 166187
2006 02 20.27925 09 38 56.79 +24 15 35.2 19.5 C 704 – Lincoln Laboratory ETS, New Mexico MPS 294340
2006 02 20.30314 09 38 55.39 +24 15 42.1 19.2 C 704 – Lincoln Laboratory ETS, New Mexico MPS 294340
2006 02 20.31504 09 38 54.58 +24 15 44.0 19.8 C 704 – Lincoln Laboratory ETS, New Mexico MPS 294340
2006 02 28.28851 09 31 30.93 +24 43 31.1 19.6 V 703 – Catalina Sky Survey MPS 166187
2006 02 28.29442 09 31 30.61 +24 43 32.6 20.5 V 703 – Catalina Sky Survey MPS 166187
2006 02 28.30034 09 31 30.21 +24 43 32.3 20.1 V 703 – Catalina Sky Survey MPS 166187
2006 02 28.30627 09 31 29.96 +24 43 32.5 19.6 V 703 – Catalina Sky Survey MPS 166187
2008 10 25.30679 03 43 13.40 +15 14 17.3 19.4 V 703 – Catalina Sky Survey MPS 261585
2008 10 25.31844 03 43 12.93 +15 14 17.4 19.8 V 703 – Catalina Sky Survey MPS 261585
2008 10 25.33014 03 43 12.25 +15 14 17.1 20.3 V 703 – Catalina Sky Survey MPS 261585
2008 10 25.34162 03 43 11.78 +15 14 16.8 19.1 V 703 – Catalina Sky Survey MPS 261585
2008 11 01.33365 03 37 10.81 +15 08 56.2 19.1 V G96 – Mt. Lemmon Survey MPS 263249
2008 11 01.34315 03 37 10.23 +15 08 55.7 19.3 V G96 – Mt. Lemmon Survey MPS 263249
2008 11 01.35274 03 37 09.69 +15 08 55.1 19.2 V G96 – Mt. Lemmon Survey MPS 263249
2008 11 01.36233 03 37 09.12 +15 08 54.8 19.1 V G96 – Mt. Lemmon Survey MPS 263249
2008 11 07.30857 03 31 09.66 +15 03 38.2 19.2 V 703 – Catalina Sky Survey MPS 264617
2008 11 07.31723 03 31 09.04 +15 03 37.0 19.4 V 703 – Catalina Sky Survey MPS 264617
2008 11 07.32587 03 31 08.50 +15 03 36.1 19.5 V 703 – Catalina Sky Survey MPS 264617
2008 11 07.33455 03 31 07.82 +15 03 35.5 19.1 V 703 – Catalina Sky Survey MPS 264617
2008 11 18.18412 03 19 11.64 +14 54 32.9 18.7 V 703 – Catalina Sky Survey MPS 266342
2008 11 18.19137 03 19 11.24 +14 54 31.8 19.0 V 703 – Catalina Sky Survey MPS 266342
2008 11 18.19862 03 19 10.74 +14 54 30.3 19.1 V 703 – Catalina Sky Survey MPS 266342
2008 11 19.32166 03 17 55.64 +14 53 46.5 19.6   704 – Lincoln Laboratory ETS, New Mexico MPS 266342
2008 11 19.33415 03 17 54.78 +14 53 46.7 19.9   704 – Lincoln Laboratory ETS, New Mexico MPS 266342
2008 11 19.34659 03 17 53.95 +14 53 45.8 20.0   704 – Lincoln Laboratory ETS, New Mexico MPS 266342
2008 11 19.35922 03 17 53.01 +14 53 44.3 20.0   704 – Lincoln Laboratory ETS, New Mexico MPS 266342
2008 11 19.37188 03 17 52.17 +14 53 44.8 19.7   704 – Lincoln Laboratory ETS, New Mexico MPS 266342
2008 11 24.25088 03 12 35.12 +14 51 18.5 19.8   704 – Lincoln Laboratory ETS, New Mexico MPS 267344
2008 11 24.26340 03 12 34.32 +14 51 17.7 19.9   704 – Lincoln Laboratory ETS, New Mexico MPS 267344
2008 11 24.27594 03 12 33.55 +14 51 18.5 20.5   704 – Lincoln Laboratory ETS, New Mexico MPS 267344
2008 11 24.28556 03 12 32.90 +14 51 16.9 19.0 V G96 – Mt. Lemmon Survey MPS 267344
2008 11 24.28861 03 12 32.64 +14 51 17.8 20.3   704 – Lincoln Laboratory ETS, New Mexico MPS 267344
2008 11 24.29110 03 12 32.54 +14 51 16.8 19.0 V G96 – Mt. Lemmon Survey MPS 267344
2008 11 24.29664 03 12 32.14 +14 51 16.6 19.0 V G96 – Mt. Lemmon Survey MPS 267344
2008 11 24.30155 03 12 31.75 +14 51 15.9 20.6   704 – Lincoln Laboratory ETS, New Mexico MPS 267344
2008 11 24.30221 03 12 31.78 +14 51 16.6 19.1 V G96 – Mt. Lemmon Survey MPS 267344
2008 11 30.22113 03 06 35.78 +14 50 37.3 19.5 V G96 – Mt. Lemmon Survey MPS 268752
2008 11 30.22665 03 06 35.46 +14 50 37.3 19.3 V G96 – Mt. Lemmon Survey MPS 268752
2008 11 30.23211 03 06 35.10 +14 50 37.3 19.3 V G96 – Mt. Lemmon Survey MPS 268752
2008 11 30.23760 03 06 34.81 +14 50 37.5 19.3 V G96 – Mt. Lemmon Survey MPS 268752
